Weather History for Ravenna, OH

Change the Weather History Date:

Friday, February 8, 2013

  Actual Average (KCAK) Record (KCAK)
Temperature  
Mean Temperature 30 °F 28 °F  
Max Temperature 37 °F 35 °F 67 °F (1900)
Min Temperature 24 °F 20 °F -10 °F (1934)
Degree Days  
Heating Degree Days 34 37  
Month to date heating degree days 303  
Since 1 July heating degree days 3839  
Cooling Degree Days 0 0  
Month to date cooling degree days 0  
Year to date cooling degree days 0  
Moisture  
Dew Point 27 °F    
Average Humidity 87    
Maximum Humidity 100    
Minimum Humidity 75    
Precipitation  
Precipitation 0.16 in 0.09 in 0.68 in (1971)
Month to date precipitation 0.66  
Year to date precipitation 3.27  
Snow  
Snow 0.00 in 0.40 in - ()
Month to date snowfall 3.0  
Since 1 July snowfall 29.0  
Snow Depth -    
Sea Level Pressure  
Sea Level Pressure 29.91 in    
Wind  
Wind Speed 11 mph (West)    
Max Wind Speed 24 mph    
Max Gust Speed 34 mph    
Visibility 6 miles    
Events Rain , Snow    
T = Trace of Precipitation, MM = Missing Value Source: NWS Daily Summary

Daily Weather History Graph

Daily Weather History Graph

Search for Another Location

Airport:

Trip Planner

Search our weather history database for the weather conditions in past years. The results will help you decide how hot, cold, wet, or windy it might be!

Date:

Astronomy

Feb. 08, 2013 Rise Set
Actual Time 7:28 AM EST 5:50 PM EST
Civil Twilight 6:59 AM EST 6:19 PM EST
Nautical Twilight 6:26 AM EST 6:52 PM EST
Astronomical Twilight 5:54 AM EST 7:24 PM EST
Moon 5:56 AM EST (2/8) 4:22 PM EST (2/8)
Length of Visible Light 11h 20m
Length of Day
10h 22m
Waning Crescent, 3% of the Moon is Illuminated
Feb 8
Waning Crescent
Feb 10
New
Feb 17
First Quarter
Feb 25
Full
Mar 4
Last Quarter

Hourly Weather History & Observations

Time (EST) Temp. Windchill Dew Point Humidity Pressure Visibility Wind Dir Wind Speed Gust Speed Precip Events Conditions
12:15 AM 34.5 °F 27.3 °F 27.3 °F 75% 29.87 in 10.0 mi ESE 9.2 mph - N/A   Clear
12:35 AM 34.3 °F 27.7 °F 27.5 °F 76% 29.86 in 10.0 mi ESE 8.1 mph - N/A   Clear
12:55 AM 34.3 °F 27.7 °F 27.5 °F 76% 29.85 in 10.0 mi ESE 8.1 mph - N/A   Scattered Clouds
1:15 AM 34.5 °F 28.6 °F 27.9 °F 77% 29.84 in 10.0 mi ESE 6.9 mph - N/A   Scattered Clouds
1:35 AM 34.9 °F 29.0 °F 28.2 °F 77% 29.83 in 10.0 mi ESE 6.9 mph - N/A   Mostly Cloudy
1:55 AM 35.1 °F 28.6 °F 28.4 °F 77% 29.82 in 10.0 mi SE 8.1 mph - N/A   Overcast
2:15 AM 35.6 °F 28.6 °F 28.8 °F 76% 29.82 in 10.0 mi SE 9.2 mph - N/A   Overcast
2:35 AM 35.6 °F 30.7 °F 29.3 °F 78% 29.81 in 10.0 mi SE 5.8 mph - N/A   Overcast
3:15 AM 36.5 °F 31.0 °F 30.0 °F 77% 29.79 in 10.0 mi SE 6.9 mph - N/A   Overcast
3:35 AM 36.7 °F 31.2 °F 30.2 °F 77% 29.79 in 10.0 mi SE 6.9 mph - N/A   Overcast
3:55 AM 36.7 °F 32.9 °F 30.6 °F 78% 29.78 in 10.0 mi SE 4.6 mph - N/A   Overcast
4:15 AM 36.5 °F 32.7 °F 30.9 °F 80% 29.78 in 10.0 mi SE 4.6 mph - N/A Rain Light Rain
4:35 AM 36.7 °F 31.2 °F 31.1 °F 80% 29.77 in 10.0 mi ESE 6.9 mph - N/A   Overcast
4:56 AM 36.9 °F 31.4 °F 31.6 °F 81% 29.76 in 10.0 mi SE 6.9 mph - N/A   Overcast
5:15 AM 37.2 °F 31.2 °F 31.8 °F 81% 29.75 in 10.0 mi SE 8.1 mph - N/A   Overcast
5:35 AM 36.7 °F 32.0 °F 32.0 °F 83% 29.75 in 10.0 mi SSE 5.8 mph - N/A Rain Rain
5:55 AM 36.9 °F 31.4 °F 32.2 °F 83% 29.73 in 10.0 mi SE 6.9 mph 17.3 mph N/A Rain Rain
6:15 AM 37.4 °F 32.1 °F 32.5 °F 83% 29.73 in 10.0 mi SE 6.9 mph - N/A   Light Drizzle
6:35 AM 37.4 °F 30.3 °F 32.9 °F 84% 29.73 in 10.0 mi SSE 10.4 mph 19.6 mph 0.01 in Rain Rain
7:15 AM 36.7 °F 34.1 °F 34.9 °F 93% 29.74 in 7.0 mi South 3.5 mph - 0.02 in Rain Rain
7:35 AM 36.5 °F 32.7 °F 36.7 °F 100% 29.74 in 5.0 mi South 4.6 mph - 0.05 in Rain Rain
7:56 AM 36.5 °F 31.0 °F 36.5 °F 100% 29.75 in 5.0 mi SSW 6.9 mph - 0.10 in Rain Rain
8:15 AM 36.5 °F 32.7 °F 36.7 °F 100% 29.75 in 5.0 mi SW 4.6 mph - 0.02 in Rain Rain
8:35 AM 36.5 °F 32.7 °F 36.7 °F 100% 29.75 in 5.0 mi SW 4.6 mph - 0.04 in Rain Light Rain
8:55 AM 37.0 °F 31.0 °F 37.0 °F 100% 29.76 in 7.0 mi WSW 8.1 mph - 0.04 in Rain Light Rain
9:15 AM 36.3 °F 26.8 °F 36.3 °F 100% 29.76 in 3.0 mi WSW 16.1 mph 23.0 mph N/A Rain Light Rain
9:35 AM 35.1 °F 26.9 °F 35.2 °F 100% 29.77 in 2.0 mi WSW 11.5 mph 20.7 mph 0.01 in Rain Heavy Rain
9:55 AM 34.2 °F 24.0 °F 34.5 °F 100% 29.78 in 2.5 mi West 16.1 mph 21.9 mph 0.01 in   Drizzle
10:15 AM 33.1 °F 23.9 °F 33.3 °F 100% 29.79 in 5.0 mi West 12.7 mph 21.9 mph N/A Snow Light Snow
10:35 AM 32.7 °F 21.4 °F 32.7 °F 100% 29.80 in 5.0 mi West 18.4 mph 27.6 mph N/A   Overcast
10:55 AM 32.0 °F 20.5 °F 32.2 °F 100% 29.81 in 4.0 mi West 18.4 mph 26.5 mph N/A   Overcast
11:15 AM 31.6 °F 20.0 °F 31.1 °F 98% 29.82 in 5.0 mi West 18.4 mph 24.2 mph N/A   Overcast
12:00 PM 30.4 °F 18.7 °F 29.1 °F 95% 29.84 in 7.0 mi WNW 17.3 mph 24.2 mph N/A   Overcast
12:15 PM 29.3 °F 17.3 °F 27.3 °F 92% 29.84 in 7.0 mi WNW 17.3 mph 28.8 mph N/A   Overcast
12:35 PM 28.6 °F 15.0 °F 26.4 °F 92% 29.85 in 5.0 mi West 21.9 mph 31.1 mph N/A   Overcast
12:55 PM 27.9 °F 15.1 °F 27.1 °F 97% 29.85 in 5.0 mi WNW 18.4 mph 29.9 mph N/A   Overcast
1:15 PM 27.5 °F 14.2 °F 24.8 °F 90% 29.87 in 4.0 mi WNW 19.6 mph 29.9 mph N/A   Overcast
1:35 PM 27.1 °F 14.5 °F 23.5 °F 86% 29.89 in 4.0 mi WNW 17.3 mph 25.3 mph N/A   Overcast
1:56 PM 26.6 °F 11.7 °F 22.6 °F 85% 29.90 in 1.2 mi WNW 24.2 mph 31.1 mph N/A Snow Light Snow
2:15 PM 25.9 °F 11.1 °F 21.6 °F 84% 29.91 in 2.0 mi WNW 23.0 mph 33.4 mph N/A Snow Light Snow
2:35 PM 25.7 °F 12.7 °F 21.9 °F 86% 29.92 in 1.2 mi WNW 17.3 mph 29.9 mph N/A Snow Light Snow
2:56 PM 25.7 °F 13.1 °F 22.1 °F 86% 29.93 in 0.8 mi WNW 16.1 mph 28.8 mph N/A Snow Light Snow
3:15 PM 25.7 °F 11.5 °F 23.0 °F 89% 29.95 in 1.5 mi WNW 20.7 mph 34.5 mph N/A Snow Light Snow
3:35 PM 25.7 °F 13.1 °F 21.9 °F 86% 29.96 in 1.0 mi NW 16.1 mph 29.9 mph N/A Snow Light Snow
3:55 PM 26.1 °F 13.6 °F 22.3 °F 86% 29.97 in 2.0 mi NW 16.1 mph 25.3 mph N/A Snow Light Snow
4:15 PM 26.1 °F 15.0 °F 22.6 °F 87% 29.98 in 2.5 mi NW 12.7 mph 25.3 mph N/A Snow Light Snow
4:35 PM 26.2 °F 13.8 °F 22.6 °F 86% 29.99 in 1.8 mi WNW 16.1 mph 31.1 mph N/A Snow Light Snow
4:55 PM 26.2 °F 13.0 °F 22.1 °F 84% 30.00 in 1.8 mi NW 18.4 mph 26.5 mph N/A Snow Light Snow
5:15 PM 26.1 °F 13.1 °F 21.9 °F 84% 30.01 in 1.2 mi NW 17.3 mph 26.5 mph N/A Snow Light Snow
5:35 PM 25.7 °F 12.3 °F 22.1 °F 86% 30.02 in 2.0 mi NW 18.4 mph 27.6 mph N/A Snow Light Snow
5:56 PM 25.7 °F 13.1 °F 21.2 °F 83% 30.03 in 3.0 mi NW 16.1 mph 28.8 mph N/A   Haze
6:15 PM 25.3 °F 15.3 °F 22.6 °F 89% 30.05 in 3.0 mi WNW 10.4 mph 18.4 mph N/A Snow Light Snow
6:35 PM 25.3 °F 13.1 °F 22.8 °F 90% 30.06 in 3.0 mi WNW 15.0 mph 23.0 mph N/A Snow Light Snow
6:56 PM 24.8 °F 12.9 °F 22.5 °F 91% 30.07 in 4.0 mi WNW 13.8 mph 26.5 mph N/A Snow Snow
7:15 PM 25.2 °F 13.3 °F 22.5 °F 89% 30.08 in 4.0 mi NW 13.8 mph 20.7 mph N/A Snow Light Snow
7:35 PM 25.2 °F 12.4 °F 21.9 °F 87% 30.09 in 5.0 mi NW 16.1 mph 25.3 mph N/A Snow Snow
7:55 PM 25.2 °F 12.0 °F 21.2 °F 85% 30.10 in 2.5 mi NW 17.3 mph 29.9 mph N/A Snow Light Snow
8:15 PM 25.2 °F 13.3 °F 21.4 °F 86% 30.11 in 5.0 mi NW 13.8 mph 21.9 mph N/A Snow Light Snow
8:35 PM 25.3 °F 12.6 °F 21.4 °F 85% 30.11 in 7.0 mi NW 16.1 mph 24.2 mph N/A Snow Light Snow
8:55 PM 25.5 °F 13.8 °F 21.6 °F 85% 30.12 in 5.0 mi NW 13.8 mph 25.3 mph N/A Snow Light Snow
9:15 PM 25.7 °F 13.5 °F 21.2 °F 83% 30.13 in 5.0 mi NW 15.0 mph 32.2 mph N/A   Haze
9:35 PM 25.7 °F 13.5 °F 21.7 °F 85% 30.14 in 5.0 mi WNW 15.0 mph 27.6 mph N/A Snow Light Snow
9:56 PM 25.5 °F 13.8 °F 21.7 °F 86% 30.14 in 5.0 mi WNW 13.8 mph 21.9 mph N/A Snow Light Snow
10:15 PM 25.5 °F 14.9 °F 21.7 °F 86% 30.15 in 5.0 mi NW 11.5 mph 20.7 mph N/A Snow Light Snow
10:35 PM 25.5 °F 14.9 °F 22.1 °F 87% 30.16 in 7.0 mi NW 11.5 mph 17.3 mph N/A Snow Light Snow
10:55 PM 25.5 °F 14.9 °F 20.3 °F 81% 30.17 in 10.0 mi NW 11.5 mph 19.6 mph N/A   Overcast
11:15 PM 25.3 °F 14.1 °F 19.6 °F 79% 30.17 in 7.0 mi NNW 12.7 mph 21.9 mph N/A   Overcast
11:35 PM 25.2 °F 14.4 °F 19.8 °F 80% 30.18 in 10.0 mi NW 11.5 mph 21.9 mph N/A   Overcast
11:55 PM 24.8 °F 12.9 °F 19.9 °F 82% 30.19 in 10.0 mi NNW 13.8 mph 24.2 mph N/A   Overcast